When you browse on this site, cookies collect data to enhance your experience and personalize the content and advertising you see.
Visit our Privacy Policy to learn more. By continuing to use the site, you agree to this use of cookies and data.
  • In Deutschland
  • Länderverzeichnis
  • Für 7 Tage
  • Wassertemperatur
  • Wetterkarte
  • Widgets
  • user-avatar
    Anmelden

    Stündliche Wetter Wuppertal

    Heute, 20 August, Dienstag

    Zeit Temperatur Niederschläge Wind Luftdruck Luftfeuchtigkeit
    00:00 +15°C° 0 mm 2 m/S 748 mmHg 71%
    01:00 +15°C° 0 mm 2 m/S 748 mmHg 73%
    02:00 +14°C° 0 mm 2 m/S 748 mmHg 74%
    03:00 +14°C° 0 mm 2 m/S 748 mmHg 76%
    04:00 +14°C° 0 mm 2 m/S 748 mmHg 75%
    05:00 +14°C° 0 mm 2 m/S 749 mmHg 75%
    06:00 +14°C° 0 mm 2 m/S 749 mmHg 74%
    07:00 +16°C° 0 mm 2 m/S 749 mmHg 69%
    08:00 +17°C° 0 mm 2 m/S 749 mmHg 64%
    09:00 +19°C° 0 mm 2 m/S 749 mmHg 59%
    10:00 +19°C° 0 mm 2 m/S 749 mmHg 54%
    11:00 +20°C° 0 mm 2 m/S 749 mmHg 50%
    12:00 +21°C° 0 mm 3 m/S 749 mmHg 45%
    13:00 +21°C° 0 mm 3 m/S 750 mmHg 45%
    14:00 +21°C° 0 mm 3 m/S 750 mmHg 44%
    15:00 +23°C° 0 mm 2 m/S 750 mmHg 43%
    16:00 +21°C° 0 mm 2 m/S 750 mmHg 49%
    17:00 +20°C° 0 mm 2 m/S 750 mmHg 55%
    18:00 +19°C° 0 mm 2 m/S 750 mmHg 61%
    19:00 +18°C° 0 mm 2 m/S 751 mmHg 64%
    20:00 +18°C° 0 mm 1 m/S 751 mmHg 68%
    21:00 +15°C° 0 mm 1 m/S 751 mmHg 71%
    22:00 +15°C° 0 mm 1 m/S 752 mmHg 72%
    23:00 +14°C° 0 mm 1 m/S 752 mmHg 73%

    Morgen, 21 August, Mittwoch

    Zeit Temperatur Niederschläge Wind Luftdruck Luftfeuchtigkeit
    00:00 +13°C° 0 mm 0 m/S 752 mmHg 75%
    01:00 +13°C° 0 mm 1 m/S 752 mmHg 76%
    02:00 +13°C° 0 mm 1 m/S 752 mmHg 77%
    03:00 +13°C° 0 mm 1 m/S 753 mmHg 79%
    04:00 +13°C° 0 mm 1 m/S 753 mmHg 77%
    05:00 +14°C° 0 mm 1 m/S 753 mmHg 75%
    06:00 +13°C° 0 mm 0 m/S 753 mmHg 73%
    07:00 +16°C° 0 mm 1 m/S 753 mmHg 65%
    08:00 +19°C° 0 mm 1 m/S 753 mmHg 56%
    09:00 +21°C° 0 mm 1 m/S 754 mmHg 48%
    10:00 +22°C° 0 mm 1 m/S 753 mmHg 44%
    11:00 +23°C° 0 mm 1 m/S 753 mmHg 39%
    12:00 +25°C° 0 mm 1 m/S 753 mmHg 35%
    13:00 +25°C° 0 mm 1 m/S 753 mmHg 34%
    14:00 +24°C° 0 mm 1 m/S 752 mmHg 34%
    15:00 +24°C° 0 mm 1 m/S 752 mmHg 33%
    16:00 +23°C° 0 mm 1 m/S 752 mmHg 38%
    17:00 +22°C° 0 mm 1 m/S 752 mmHg 43%
    18:00 +21°C° 0 mm 1 m/S 752 mmHg 48%
    19:00 +20°C° 0 mm 1 m/S 752 mmHg 51%
    20:00 +18°C° 0 mm 1 m/S 752 mmHg 55%
    21:00 +16°C° 0 mm 2 m/S 752 mmHg 58%
    22:00 +16°C° 0 mm 1 m/S 752 mmHg 60%
    23:00 +16°C° 0 mm 1 m/S 752 mmHg 61%

    übermorgen, 22 August, Donnerstag

    Zeit Temperatur Niederschläge Wind Luftdruck Luftfeuchtigkeit
    00:00 +15°C° 0 mm 1 m/S 752 mmHg 63%
    01:00 +15°C° 0 mm 1 m/S 752 mmHg 65%
    02:00 +15°C° 0 mm 1 m/S 752 mmHg 66%
    03:00 +15°C° 0 mm 1 m/S 751 mmHg 68%
    04:00 +15°C° 0 mm 1 m/S 751 mmHg 68%
    05:00 +16°C° 0 mm 1 m/S 751 mmHg 67%
    06:00 +16°C° 0 mm 1 m/S 752 mmHg 67%
    07:00 +19°C° 0 mm 1 m/S 752 mmHg 61%
    08:00 +20°C° 0 mm 2 m/S 752 mmHg 54%
    09:00 +23°C° 0 mm 2 m/S 752 mmHg 48%
    10:00 +24°C° 0 mm 2 m/S 752 mmHg 45%
    11:00 +25°C° 0 mm 2 m/S 752 mmHg 42%
    12:00 +26°C° 0 mm 2 m/S 752 mmHg 38%
    13:00 +26°C° 0 mm 2 m/S 751 mmHg 38%
    14:00 +26°C° 0 mm 2 m/S 751 mmHg 37%
    15:00 +26°C° 0 mm 2 m/S 751 mmHg 37%
    16:00 +25°C° 0 mm 2 m/S 751 mmHg 42%
    17:00 +23°C° 0 mm 2 m/S 751 mmHg 47%
    18:00 +21°C° 0 mm 2 m/S 751 mmHg 52%
    19:00 +20°C° 0 mm 2 m/S 752 mmHg 55%
    20:00 +20°C° 0 mm 1 m/S 752 mmHg 59%
    21:00 +19°C° 0 mm 1 m/S 753 mmHg 62%
    22:00 +18°C° 0 mm 1 m/S 752 mmHg 63%
    23:00 +18°C° 0 mm 1 m/S 752 mmHg 64%

    23 August, Freitag

    Zeit Temperatur Niederschläge Wind Luftdruck Luftfeuchtigkeit
    00:00 +18°C° 0 mm 1 m/S 752 mmHg 64%
    01:00 +16°C° 0 mm 1 m/S 752 mmHg 65%
    02:00 +16°C° 0 mm 1 m/S 752 mmHg 66%
    03:00 +16°C° 0 mm 1 m/S 752 mmHg 67%
    04:00 +16°C° 0 mm 1 m/S 752 mmHg 66%
    05:00 +18°C° 0 mm 1 m/S 752 mmHg 65%
    06:00 +19°C° 0 mm 1 m/S 752 mmHg 64%
    07:00 +21°C° 0 mm 1 m/S 752 mmHg 57%
    08:00 +23°C° 0 mm 1 m/S 752 mmHg 51%
    09:00 +25°C° 0 mm 1 m/S 753 mmHg 44%
    10:00 +26°C° 0 mm 1 m/S 752 mmHg 41%
    11:00 +28°C° 0 mm 1 m/S 752 mmHg 37%
    12:00 +29°C° 0 mm 1 m/S 752 mmHg 34%
    13:00 +29°C° 0 mm 1 m/S 751 mmHg 34%
    14:00 +29°C° 0 mm 1 m/S 751 mmHg 33%
    15:00 +29°C° 0 mm 2 m/S 751 mmHg 33%
    16:00 +28°C° 0 mm 2 m/S 750 mmHg 39%
    17:00 +26°C° 0 mm 2 m/S 750 mmHg 44%
    18:00 +25°C° 0 mm 2 m/S 750 mmHg 50%
    19:00 +24°C° 0 mm 2 m/S 750 mmHg 53%
    20:00 +23°C° 0 mm 2 m/S 750 mmHg 55%
    21:00 +21°C° 0 mm 2 m/S 750 mmHg 58%
    22:00 +20°C° 0 mm 2 m/S 750 mmHg 57%
    23:00 +20°C° 0 mm 2 m/S 750 mmHg 57%

    24 August, Samstag

    Zeit Temperatur Niederschläge Wind Luftdruck Luftfeuchtigkeit
    00:00 +19°C° 0 mm 2 m/S 749 mmHg 57%
    01:00 +19°C° 0 mm 2 m/S 749 mmHg 59%
    02:00 +19°C° 0 mm 2 m/S 749 mmHg 61%
    03:00 +18°C° 0 mm 2 m/S 748 mmHg 63%
    04:00 +19°C° 0 mm 1 m/S 748 mmHg 64%
    05:00 +20°C° 0 mm 1 m/S 748 mmHg 65%
    06:00 +20°C° 0 mm 1 m/S 748 mmHg 66%
    07:00 +22°C° 0 mm 1 m/S 748 mmHg 59%
    08:00 +24°C° 0 mm 1 m/S 748 mmHg 52%
    09:00 +26°C° 0 mm 1 m/S 748 mmHg 46%
    10:00 +27°C° 0 mm 1 m/S 748 mmHg 42%
    11:00 +29°C° 0 mm 1 m/S 747 mmHg 37%
    12:00 +30°C° 0 mm 2 m/S 747 mmHg 33%
    13:00 +30°C° 0 mm 1 m/S 747 mmHg 32%
    14:00 +30°C° 0 mm 1 m/S 746 mmHg 32%
    15:00 +30°C° 0 mm 1 m/S 746 mmHg 31%
    16:00 +29°C° 0 mm 1 m/S 746 mmHg 37%
    17:00 +27°C° 0 mm 1 m/S 746 mmHg 42%
    18:00 +26°C° 0 mm 1 m/S 746 mmHg 48%
    19:00 +25°C° 0 mm 1 m/S 746 mmHg 50%
    20:00 +24°C° 0 mm 1 m/S 746 mmHg 53%
    21:00 +23°C° 0 mm 1 m/S 746 mmHg 55%
    22:00 +23°C° 0 mm 1 m/S 746 mmHg 57%
    23:00 +22°C° 0 mm 1 m/S 746 mmHg 58%

    25 August, Sonntag

    Zeit Temperatur Niederschläge Wind Luftdruck Luftfeuchtigkeit
    00:00 +22°C° 0 mm 1 m/S 746 mmHg 60%
    01:00 +21°C° 0 mm 1 m/S 745 mmHg 61%
    02:00 +21°C° 0 mm 1 m/S 745 mmHg 63%
    03:00 +21°C° 0 mm 1 m/S 745 mmHg 64%
    04:00 +21°C° 0 mm 1 m/S 745 mmHg 64%
    05:00 +21°C° 0 mm 1 m/S 745 mmHg 65%
    06:00 +22°C° 0 mm 1 m/S 745 mmHg 65%
    07:00 +23°C° 0 mm 1 m/S 745 mmHg 60%
    08:00 +25°C° 0 mm 1 m/S 745 mmHg 55%
    09:00 +27°C° 0 mm 1 m/S 746 mmHg 50%
    10:00 +29°C° 0 mm 1 m/S 745 mmHg 46%
    11:00 +30°C° 0 mm 1 m/S 745 mmHg 42%
    12:00 +31°C° 0 mm 2 m/S 745 mmHg 38%
    13:00 +31°C° 0 mm 2 m/S 745 mmHg 37%
    14:00 +31°C° 0 mm 2 m/S 744 mmHg 36%
    15:00 +31°C° 0 mm 2 m/S 744 mmHg 36%
    16:00 +29°C° 0 mm 2 m/S 744 mmHg 41%
    17:00 +28°C° 0 mm 2 m/S 744 mmHg 47%
    18:00 +26°C° 0 mm 2 m/S 744 mmHg 52%
    19:00 +25°C° 0 mm 2 m/S 745 mmHg 54%
    20:00 +24°C° 0 mm 1 m/S 745 mmHg 56%
    21:00 +23°C° 0 mm 1 m/S 745 mmHg 58%
    22:00 +23°C° 0 mm 1 m/S 745 mmHg 60%
    23:00 +22°C° 0 mm 1 m/S 745 mmHg 61%
    Mehr zeigen